Sevilla, Spain

12:55 AM CET on December 16, 2017 (GMT +0100)
San Pablo

Weather History for LEZL - November, 2012

Change the Weather History Date:

Thursday, November 22, 2012

  Actual Average Record
Temperature  
Mean Temperature 62 °F -  
Max Temperature 68 °F 62 °F 73 °F (2008)
Min Temperature 57 °F 45 °F 35 °F (1998)
Degree Days  
Heating Degree Days 2    
Growing Degree Days 12 (Base 50)    
Moisture  
Dew Point 56 °F    
Average Humidity 83    
Maximum Humidity 100    
Minimum Humidity 60    
Precipitation  
Precipitation 0.00 in - - ()
Sea Level Pressure  
Sea Level Pressure 30.13 in    
Wind  
Wind Speed 2 mph ()    
Max Wind Speed 6 mph    
Max Gust Speed -    
Visibility 6.1 miles    
Events      
Averages and records for this station are not official NWS values.
T = Trace of Precipitation, MM = Missing Value Source: Averaged Metar Reports

Daily Weather History Graph

Daily Weather History Graph

Search for Another Location

Airport or City:

Trip Planner

Search our weather history database for the weather conditions in past years. The results will help you decide how hot, cold, wet, or windy it might be!

Date:

Astronomy

Nov. 22, 2012 Rise Set
Actual Time 8:10 AM CET 6:08 PM CET
Civil Twilight 7:42 AM CET 6:37 PM CET
Nautical Twilight 7:10 AM CET 7:08 PM CET
Astronomical Twilight 6:39 AM CET 7:40 PM CET
Moon 2:41 PM CET (11/22) 2:23 AM CET (11/22)
Length of Visible Light 10h 54m
Length of Day
9h 58m
Waxing Gibbous, 69% of the Moon is Illuminated
Nov 22
Waxing Gibbous
Nov 28
Full
Dec 6
Last Quarter
Dec 13
New
Dec 20
First Quarter

Hourly Weather History & Observations

Time (CET) Temp. Dew Point Humidity Pressure Visibility Wind Dir Wind Speed Gust Speed Precip Events Conditions
12:00 AM 57.2 °F 55.4 °F 94% 30.12 in 5.0 mi NNE 2.3 mph - N/A   Partly Cloudy
12:30 AM 57.2 °F 55.4 °F 94% 30.12 in 5.0 mi Variable 1.2 mph - N/A   Partly Cloudy
1:00 AM 57.2 °F 55.4 °F 94% 30.12 in 5.0 mi North 2.3 mph - N/A   Scattered Clouds
4:30 AM 57.2 °F 55.4 °F 94% 30.09 in 5.0 mi NE 2.3 mph - N/A   Mostly Cloudy
5:00 AM 57.2 °F 55.4 °F 94% 30.09 in 5.0 mi NE 1.2 mph - N/A   Overcast
5:30 AM 57.2 °F 55.4 °F 94% 30.09 in 6.2 mi NE 1.2 mph - N/A   Overcast
6:00 AM 57.2 °F 55.4 °F 94% 30.09 in 6.2 mi Calm Calm - N/A   Overcast
6:30 AM 57.2 °F 55.4 °F 94% 30.12 in 6.2 mi Calm Calm - N/A   Scattered Clouds
7:00 AM 57.2 °F 57.2 °F 100% 30.09 in 6.2 mi NE 1.2 mph - N/A   Partly Cloudy
7:30 AM 57.2 °F 55.4 °F 94% 30.12 in 6.2 mi Variable 1.2 mph - N/A   Scattered Clouds
8:00 AM 57.2 °F 55.4 °F 94% 30.12 in 6.2 mi NW 1.2 mph - N/A   Scattered Clouds
8:30 AM 57.2 °F 55.4 °F 94% 30.12 in 6.2 mi Calm Calm - N/A   Partly Cloudy
9:00 AM 57.2 °F 55.4 °F 94% 30.15 in 6.2 mi Calm Calm - N/A   Scattered Clouds
9:30 AM 59.0 °F 57.2 °F 94% 30.15 in - ENE 3.5 mph - N/A   Clear
10:00 AM 60.8 °F 57.2 °F 88% 30.15 in 6.2 mi East 3.5 mph - N/A   Partly Cloudy
10:30 AM 62.6 °F 57.2 °F 82% 30.15 in 6.2 mi East 3.5 mph - N/A   Partly Cloudy
11:00 AM 62.6 °F 57.2 °F 82% 30.18 in 6.2 mi East 3.5 mph - N/A   Partly Cloudy
11:30 AM 64.4 °F 57.2 °F 77% 30.18 in 6.2 mi East 3.5 mph - N/A   Partly Cloudy
12:00 PM 64.4 °F 57.2 °F 77% 30.18 in 6.2 mi Calm Calm - N/A   Scattered Clouds
12:30 PM 64.4 °F 57.2 °F 77% 30.18 in 6.2 mi Calm Calm - N/A   Scattered Clouds
1:00 PM 64.4 °F 57.2 °F 77% 30.15 in 6.2 mi Calm Calm - N/A   Partly Cloudy
1:30 PM 68.0 °F 59.0 °F 73% 30.15 in 6.2 mi Calm Calm - N/A   Partly Cloudy
2:00 PM 66.2 °F 57.2 °F 73% 30.12 in 6.2 mi Variable 1.2 mph - N/A   Scattered Clouds
2:30 PM 66.2 °F 55.4 °F 68% 30.12 in 6.2 mi SW 1.2 mph - N/A   Scattered Clouds
3:00 PM 68.0 °F 55.4 °F 64% 30.12 in 6.2 mi SSE 1.2 mph - N/A   Scattered Clouds
3:30 PM 66.2 °F 55.4 °F 68% 30.12 in 6.2 mi SW 3.5 mph - N/A   Scattered Clouds
4:00 PM 68.0 °F 53.6 °F 60% 30.12 in 6.2 mi SW 3.5 mph - N/A   Partly Cloudy
4:30 PM 66.2 °F 55.4 °F 68% 30.12 in 6.2 mi SW 3.5 mph - N/A   Partly Cloudy
5:00 PM 66.2 °F 55.4 °F 68% 30.12 in 6.2 mi SW 3.5 mph - N/A   Partly Cloudy
5:30 PM 64.4 °F 55.4 °F 73% 30.12 in 6.2 mi WSW 5.8 mph - N/A   Partly Cloudy
6:00 PM 64.4 °F 55.4 °F 73% 30.12 in 6.2 mi SW 3.5 mph - N/A   Scattered Clouds
6:30 PM 62.6 °F 55.4 °F 77% 30.12 in 6.2 mi SW 3.5 mph - N/A   Scattered Clouds
7:00 PM 62.6 °F 57.2 °F 82% 30.12 in 6.2 mi WSW 2.3 mph - N/A   Scattered Clouds
7:30 PM 60.8 °F 55.4 °F 82% 30.12 in 6.2 mi SW 1.2 mph - N/A   Scattered Clouds
8:00 PM 60.8 °F 55.4 °F 82% 30.15 in 6.2 mi WSW 2.3 mph - N/A   Scattered Clouds
8:30 PM 62.6 °F 57.2 °F 82% 30.15 in 6.2 mi WSW 3.5 mph - N/A   Scattered Clouds
9:00 PM 62.6 °F 57.2 °F 82% 30.15 in 6.2 mi SW 2.3 mph - N/A   Scattered Clouds
9:30 PM 60.8 °F 55.4 °F 82% 30.15 in 6.2 mi South 1.2 mph - N/A   Scattered Clouds
10:00 PM 59.0 °F 55.4 °F 88% 30.15 in 6.2 mi Variable 1.2 mph - N/A   Scattered Clouds
10:30 PM 60.8 °F 55.4 °F 82% 30.15 in 6.2 mi SSW 3.5 mph - N/A   Scattered Clouds
11:00 PM 59.0 °F 55.4 °F 88% 30.15 in 6.2 mi South 3.5 mph - N/A   Scattered Clouds